Location: Copeville
(33.0796°N, 96.4155°W)
Time: 10:30:55
(UTC+00:00)

DELTA 1 DEB - Visible Passes

Search period start: 30 November 2023 00:00
Search period end: 10 December 2023 00:00
Orbit: 810 x 852 km, 99.0° (Epoch: 14 November)

Date Brightness Start Highest point End Pass type
(mag) Time Alt. Az. Time Alt. Az. Time Alt. Az.
30 Nov ? 01:14:03 10° SW 01:16:50 14° W 01:19:39 10° WNW visible
30 Nov ? 11:54:33 10° NE 11:59:25 32° E 12:04:16 10° SSE visible
01 Dec ? 00:55:02 10° SW 00:59:03 22° W 01:03:08 10° NW visible
01 Dec ? 11:37:33 10° NE 11:41:42 22° E 11:45:49 10° SE visible
02 Dec ? 00:36:35 10° SSW 00:41:19 33° W 00:46:06 10° NW visible
02 Dec ? 11:21:05 10° ENE 11:23:55 14° E 11:26:43 10° SE visible
03 Dec ? 00:18:31 10° S 00:23:37 50° W 00:28:48 10° NNW visible
03 Dec ? 12:41:22 10° NNE 12:46:52 88° WNW 12:52:22 10° SSW visible
04 Dec ? 00:00:41 10° S 00:05:58 77° WSW 00:11:19 10° NNW visible
04 Dec ? 12:23:48 10° NNE 12:29:15 63° ESE 12:34:41 10° S visible
04 Dec ? 23:43:06 10° SSE 23:48:21 72° ENE 23:53:41 10° N visible
05 Dec ? 01:28:03 10° WSW 01:29:03 10° W 01:30:03 10° W visible
05 Dec ? 12:06:24 10° NNE 12:11:34 42° E 12:16:45 10° S visible
06 Dec ? 01:07:54 10° SW 01:11:14 17° W 01:14:36 10° NW visible
06 Dec ? 11:49:12 10° NE 11:53:53 28° E 11:58:31 10° SSE visible
07 Dec ? 00:49:07 10° SSW 00:53:27 26° W 00:57:51 10° NW visible
07 Dec ? 11:32:19 10° NE 11:36:07 19° E 11:39:54 10° SE visible
08 Dec ? 00:30:50 10° SSW 00:35:43 38° W 00:40:42 10° NNW visible
08 Dec ? 11:16:14 10° ENE 11:18:19 12° E 11:20:24 10° ESE visible
09 Dec ? 00:12:49 10° S 00:18:02 59° W 00:23:19 10° NNW visible
09 Dec ? 12:35:49 10° NNE 12:41:20 81° ESE 12:46:51 10° S visible
